Location: Woodhurst
(52.3667°N, 0.0667°W)
Time: 19:36:14
(UTC+00:00)

Cosmos 2360 Rocket - Pass Details

Date: 19 May 2025
Orbit: 834 x 842 km, 71.0° (Epoch: 23 June)

Event Time Altitude Azimuth Distance (km) Brightness Sun altitude
Rises 23:07:45 0° 329° (NNW) 3,395 6.7 -16.9°
Reaches altitude 10° 23:10:13 10° 333° (NNW) 2,457 5.8 -16.9°
Maximum altitude 23:15:50 65° 55° (NE) 918 2.4 -17.1°
Enters shadow 23:19:38 21° 133° (SE) 1,802 3.5 -17.2°
